Weather History for Istres, France

Change the Weather History Date:

Tuesday, August 27, 2013

  Actual Average (LFML) Record (LFML)
Temperature  
Mean Temperature 72 °F -  
Max Temperature 83 °F 82 °F 93 °F (2003)
Min Temperature 60 °F 64 °F 57 °F (2013)
Cooling Degree Days 6    
Growing Degree Days 22 (Base 50)    
Moisture  
Dew Point 52 °F    
Average Humidity 49    
Maximum Humidity 77    
Minimum Humidity 25    
Precipitation  
Precipitation 0.00 in - - ()
Sea Level Pressure  
Sea Level Pressure 29.88 in    
Wind  
Wind Speed 10 mph ()    
Max Wind Speed 22 mph    
Max Gust Speed 22 mph    
Visibility 6.2 miles    
Events      
Averages and records for this station are not official NWS values.
T = Trace of Precipitation, MM = Missing Value Source: Averaged Metar Reports

Daily Weather History Graph

Daily Weather History Graph

Search for Another Location

Airport:

Trip Planner

Search our weather history database for the weather conditions in past years. The results will help you decide how hot, cold, wet, or windy it might be!

Date:

Astronomy

Aug. 27, 2013 Rise Set
Actual Time 6:58 AM CEST 8:24 PM CEST
Civil Twilight 6:28 AM CEST 8:54 PM CEST
Nautical Twilight 5:52 AM CEST 9:29 PM CEST
Astronomical Twilight 5:14 AM CEST 10:08 PM CEST
Moon 11:52 PM CEST (8/27) 1:55 PM CEST (8/27)
Length of Visible Light 14h 25m
Length of Day
13h 25m
Waning Gibbous, 60% of the Moon is Illuminated
Aug 27
Waning Gibbous
Aug 28
Last Quarter
Sep 5
New
Sep 12
First Quarter
Sep 19
Full

Hourly Weather History & Observations

Time (CEST) Temp. Heat Index Dew Point Humidity Pressure Visibility Wind Dir Wind Speed Gust Speed Precip Events Conditions
12:00 AM 68.0 °F - 51.8 °F 56% 29.89 in 6.2 mi NW 8.1 mph - N/A   Unknown
12:30 AM 66.2 °F - 51.8 °F 60% 29.89 in 6.2 mi WNW 6.9 mph - N/A   Unknown
1:00 AM 66.2 °F - 51.8 °F 60% 29.86 in 6.2 mi NW 8.1 mph - N/A   Unknown
1:30 AM 66.2 °F - 50.0 °F 56% 29.86 in 6.2 mi NNW 9.2 mph - N/A   Unknown
2:00 AM 66.2 °F - 50.0 °F 56% 29.89 in 6.2 mi NNW 5.8 mph - N/A   Unknown
2:30 AM 66.2 °F - 51.8 °F 60% 29.86 in 6.2 mi North 8.1 mph - N/A   Unknown
3:00 AM 64.4 °F - 51.8 °F 64% 29.86 in 6.2 mi North 6.9 mph - N/A   Unknown
3:30 AM 66.2 °F - 51.8 °F 60% 29.86 in 6.2 mi North 10.4 mph - N/A   Unknown
4:00 AM 66.2 °F - 51.8 °F 60% 29.86 in 6.2 mi North 10.4 mph - N/A   Unknown
4:30 AM 64.4 °F - 51.8 °F 64% 29.86 in 6.2 mi North 11.5 mph - N/A   Unknown
5:00 AM 64.4 °F - 51.8 °F 64% 29.86 in 6.2 mi North 10.4 mph - N/A   Unknown
5:30 AM 64.4 °F - 51.8 °F 64% 29.86 in 6.2 mi North 12.7 mph - N/A   Unknown
6:00 AM 64.4 °F - 53.6 °F 68% 29.86 in 6.2 mi North 12.7 mph - N/A   Unknown
6:30 AM 62.6 °F - 51.8 °F 68% 29.86 in 6.2 mi NNW 8.1 mph - N/A   Unknown
7:00 AM 60.8 °F - 51.8 °F 72% 29.89 in 6.2 mi NNW 3.5 mph - N/A   Unknown
7:30 AM 60.8 °F - 53.6 °F 77% 29.89 in 6.2 mi NW 5.8 mph - N/A   Unknown
8:00 AM 64.4 °F - 53.6 °F 68% 29.89 in 6.2 mi NW 6.9 mph - N/A   Unknown
8:30 AM 66.2 °F - 53.6 °F 64% 29.89 in 6.2 mi WNW 9.2 mph - N/A   Unknown
9:00 AM 66.2 °F - 53.6 °F 64% 29.89 in 6.2 mi NW 12.7 mph - N/A   Unknown
9:30 AM 68.0 °F - 53.6 °F 60% 29.89 in 6.2 mi NW 15.0 mph - N/A   Unknown
10:00 AM 71.6 °F - 55.4 °F 57% 29.89 in 6.2 mi NNW 18.4 mph - N/A   Unknown
10:30 AM 71.6 °F - 53.6 °F 53% 29.89 in 6.2 mi NNW 20.7 mph - N/A   Unknown
11:00 AM 73.4 °F - 53.6 °F 50% 29.89 in 6.2 mi NNW 17.3 mph - N/A   Unknown
11:30 AM 75.2 °F - 53.6 °F 47% 29.89 in 6.2 mi NNW 15.0 mph - N/A   Unknown
12:00 PM 75.2 °F - 51.8 °F 44% 29.89 in 6.2 mi NNW 17.3 mph - N/A   Unknown
12:30 PM 77.0 °F - 51.8 °F 41% 29.89 in 6.2 mi North 16.1 mph - N/A   Unknown
1:00 PM 78.8 °F - 51.8 °F 39% 29.89 in 6.2 mi NW 16.1 mph - N/A   Unknown
1:30 PM 78.8 °F - 50.0 °F 36% 29.89 in 6.2 mi NW 16.1 mph - N/A   Unknown
2:00 PM 78.8 °F - 51.8 °F 39% 29.89 in 6.2 mi NNW 15.0 mph - N/A   Unknown
2:30 PM 80.6 °F - 50.0 °F 34% 29.86 in 6.2 mi NW 11.5 mph - N/A   Unknown
3:00 PM 80.6 °F - 51.8 °F 37% 29.86 in 6.2 mi WNW 15.0 mph - N/A   Unknown
3:30 PM 82.4 °F - 51.8 °F 35% 29.86 in 6.2 mi West 10.4 mph - N/A   Unknown
4:00 PM 82 °F - 52 °F 25% 29.86 in 34 mi West 13.8 mph - -   Clear
4:00 PM 82.4 °F - 51.8 °F 35% 29.86 in 6.2 mi West 13.8 mph - N/A   Unknown
4:30 PM 84.2 °F 82.8 °F 53.6 °F 35% 29.86 in 6.2 mi Variable 9.2 mph 21.9 mph N/A   Unknown
5:00 PM 80 °F - 52 °F 27% 29.86 in 31 mi North 22.4 mph - -   Clear
5:00 PM 80.6 °F - 51.8 °F 37% 29.86 in 6.2 mi North 11.5 mph - N/A   Unknown
5:30 PM 78.8 °F - 51.8 °F 39% 29.86 in 6.2 mi North 11.5 mph - N/A   Unknown
6:00 PM 78 °F - 52 °F 30% 29.86 in 34 mi North 20.1 mph - -   Clear
6:00 PM 78.8 °F - 51.8 °F 39% 29.86 in 6.2 mi North 10.4 mph - N/A   Unknown
6:30 PM 78.8 °F - 51.8 °F 39% 29.86 in 6.2 mi North 10.4 mph - N/A   Unknown
7:00 PM 79 °F - 52 °F 28% 29.86 in 28 mi NNW 10.4 mph - -   Clear
7:00 PM 78.8 °F - 51.8 °F 39% 29.86 in 6.2 mi NNW 10.4 mph - N/A   Unknown
7:30 PM 77.0 °F - 51.8 °F 41% 29.86 in 6.2 mi North 11.5 mph - N/A   Unknown
8:00 PM 76 °F - 51 °F 31% 29.88 in 37 mi North 13.8 mph - -   Clear
8:00 PM 75.2 °F - 51.8 °F 44% 29.86 in 6.2 mi North 13.8 mph - N/A   Unknown
8:30 PM 75.2 °F - 51.8 °F 44% 29.86 in 6.2 mi North 13.8 mph - N/A   Unknown
9:00 PM 73 °F - 53 °F 38% 29.90 in 37 mi North 20.1 mph - -   Clear
9:00 PM 73.4 °F - 51.8 °F 47% 29.89 in 6.2 mi North 10.4 mph - N/A   Unknown
9:30 PM 71.6 °F - 53.6 °F 53% 29.89 in 6.2 mi NNW 10.4 mph - N/A   Unknown
10:00 PM 71 °F - 52 °F 40% 29.91 in 37 mi NNW 20.1 mph - -   Clear
10:00 PM 71.6 °F - 51.8 °F 50% 29.89 in 6.2 mi NNW 10.4 mph - N/A   Unknown
10:30 PM 69.8 °F - 51.8 °F 53% 29.92 in 6.2 mi North 9.2 mph - N/A   Unknown
11:00 PM 70 °F - 54 °F 46% 29.92 in 37 mi North 22.4 mph - -   Clear
11:00 PM 69.8 °F - 53.6 °F 56% 29.92 in 6.2 mi North 11.5 mph - N/A   Unknown
11:30 PM 68.0 °F - 53.6 °F 60% 29.92 in 6.2 mi NW 8.1 mph - N/A   Unknown